N42J KORF-KMYR

Flight info

Callsign N42J
Flight time N/A
Altitude VFR/045
Route
Aircraft PC12/L-VGD/C

Departure

Time N/A
Airport Norfolk International Airport (KORF)

Arrival

Time 2026-04-23 22:20
Airport Myrtle Beach International Airport (KMYR)
Time Latitude Longitude Altitude Speed Heading
2026-04-23 22:06 34.36306 -78.89453 5986 ft 225 kts 195°
2026-04-23 22:06 34.34768 -78.89822 5826 ft 224 kts 195°
2026-04-23 22:06 34.33243 -78.90182 5681 ft 223 kts 195°
2026-04-23 22:06 34.31715 -78.90536 5525 ft 222 kts 194°
2026-04-23 22:07 34.30214 -78.90880 5373 ft 221 kts 194°
2026-04-23 22:07 34.28688 -78.91225 5214 ft 220 kts 194°
2026-04-23 22:07 34.27178 -78.91561 5058 ft 220 kts 194°
2026-04-23 22:07 34.25686 -78.91890 4897 ft 219 kts 194°
2026-04-23 22:08 34.24169 -78.92221 4738 ft 219 kts 194°
2026-04-23 22:08 34.22666 -78.92546 4593 ft 219 kts 194°
2026-04-23 22:08 34.21180 -78.92863 4477 ft 217 kts 194°
2026-04-23 22:08 34.19704 -78.93166 4446 ft 211 kts 193°
2026-04-23 22:09 34.18259 -78.93444 4440 ft 206 kts 192°
2026-04-23 22:09 34.16874 -78.93691 4436 ft 201 kts 192°
2026-04-23 22:09 34.15503 -78.93919 4434 ft 197 kts 192°
2026-04-23 22:09 34.14141 -78.94134 4442 ft 193 kts 191°
2026-04-23 22:10 34.12818 -78.94334 4444 ft 191 kts 191°
2026-04-23 22:10 34.11508 -78.94531 4444 ft 189 kts 191°
2026-04-23 22:10 34.10187 -78.94724 4445 ft 190 kts 190°
2026-04-23 22:10 34.08863 -78.94918 4446 ft 197 kts 191°
2026-04-23 22:11 34.07462 -78.95125 4446 ft 202 kts 190°
2026-04-23 22:11 34.06048 -78.95332 4446 ft 207 kts 190°
2026-04-23 22:11 34.04616 -78.95540 4448 ft 210 kts 190°
2026-04-23 22:11 34.03152 -78.95755 4453 ft 212 kts 191°
2026-04-23 22:12 34.01679 -78.95974 4450 ft 214 kts 190°
2026-04-23 22:12 34.00196 -78.96194 4450 ft 215 kts 191°
2026-04-23 22:12 33.98696 -78.96413 4447 ft 216 kts 191°
2026-04-23 22:12 33.97203 -78.96626 4453 ft 217 kts 190°
2026-04-23 22:13 33.95690 -78.96833 4455 ft 218 kts 190°
2026-04-23 22:13 33.94190 -78.97028 4454 ft 218 kts 189°
2026-04-23 22:13 33.92663 -78.97214 4457 ft 219 kts 189°
2026-04-23 22:13 33.91217 -78.97424 4268 ft 205 kts 192°
2026-04-23 22:14 33.89822 -78.97633 3967 ft 198 kts 190°
2026-04-23 22:14 33.88456 -78.97747 3653 ft 193 kts 186°
2026-04-23 22:14 33.87141 -78.97710 3338 ft 189 kts 178°
2026-04-23 22:14 33.85849 -78.97450 3031 ft 186 kts 173°
2026-04-23 22:15 33.84636 -78.97154 3024 ft 158 kts 172°
2026-04-23 22:15 33.83624 -78.96870 2788 ft 152 kts 172°
2026-04-23 22:15 33.82602 -78.96591 2505 ft 149 kts 172°
2026-04-23 22:15 33.81607 -78.96327 2213 ft 147 kts 173°
2026-04-23 22:16 33.80609 -78.96069 1918 ft 145 kts 173°
2026-04-23 22:16 33.79619 -78.95816 1641 ft 141 kts 173°
2026-04-23 22:16 33.78714 -78.95580 1567 ft 123 kts 174°
2026-04-23 22:16 33.77934 -78.95383 1554 ft 111 kts 170°
2026-04-23 22:17 33.77178 -78.95165 1594 ft 118 kts 172°
2026-04-23 22:17 33.76365 -78.94957 1434 ft 118 kts 173°
2026-04-23 22:17 33.75591 -78.94756 1275 ft 108 kts 172°
2026-04-23 22:17 33.74861 -78.94566 1134 ft 106 kts 173°
2026-04-23 22:18 33.74153 -78.94385 996 ft 103 kts 173°
2026-04-23 22:18 33.73456 -78.94210 857 ft 98 kts 173°
2026-04-23 22:18 33.72804 -78.94044 728 ft 94 kts 173°
2026-04-23 22:18 33.72176 -78.93887 596 ft 92 kts 172°
2026-04-23 22:19 33.71557 -78.93733 483 ft 91 kts 171°
2026-04-23 22:19 33.70937 -78.93573 390 ft 91 kts 172°
2026-04-23 22:19 33.70303 -78.93415 271 ft 92 kts 173°
2026-04-23 22:19 33.69689 -78.93263 129 ft 89 kts 171°
2026-04-23 22:20 33.69089 -78.93115 20 ft 79 kts 169°
2026-04-23 22:20 33.68677 -78.93008 22 ft 46 kts 171°
2026-04-23 22:20 33.68411 -78.92941 22 ft 34 kts 171°
2026-04-23 22:20 33.68189 -78.92886 22 ft 29 kts 171°
2026-04-23 22:21 33.68087 -78.92930 22 ft 19 kts 248°
2026-04-23 22:21 33.68076 -78.92961 22 ft 0 kts 244°
2026-04-23 22:21 33.68069 -78.92979 22 ft 7 kts 245°
2026-04-23 22:22 33.68036 -78.93072 22 ft 16 kts 250°
2026-04-23 22:22 33.67983 -78.93188 22 ft 15 kts 200°
2026-04-23 22:22 33.67862 -78.93170 22 ft 19 kts 170°
2026-04-23 22:22 33.67718 -78.93134 22 ft 22 kts 170°
2026-04-23 22:23 33.67587 -78.93102 22 ft 8 kts 171°
2026-04-23 22:23 33.67533 -78.93109 22 ft 8 kts 225°
2026-04-23 22:23 33.67514 -78.93191 22 ft 13 kts 259°
2026-04-23 22:23 33.67484 -78.93256 22 ft 2 kts 192°
2026-04-23 22:24 33.67481 -78.93256 22 ft 0 kts 170°